This demonstration page uses our WeatherBlox Daily Observations layout. Learn more.

Left ArrowRight Arrow

Hourly Observations for May 3, 2021

Temp ( °F °C ) Dew Point ( °F °C ) Humidity (%) Winds ( mph kmh ) Pressure ( in mb ) Visibility ( mi km ) Precip ( " mm )
12:15 am 00:15 Clear 70 21 50 10 50 50 S 3 6 29.82 1010 10 16.0934 0 0
12:35 am 00:35 Clear 68 20 50 10 53 53 Calm 29.81 1010 10 16.0934 0 0
12:55 am 00:55 Clear 66 19 54 12 64 64 SW 3 6 29.81 1010 10 16.0934 0 0
1:15 am 01:15 Clear 66 19 52 11 60 60 SSW 3 6 29.81 1010 10 16.0934 0 0
1:35 am 01:35 Clear 64 18 52 11 64 64 WSW 3 6 29.81 1010 10 16.0934 0 0
1:55 am 01:55 Clear 64 18 52 11 64 64 SSW 3 6 29.82 1010 10 16.0934 0 0
2:15 am 02:15 Clear 64 18 52 11 64 64 Calm 29.81 1010 10 16.0934 0 0
2:35 am 02:35 Clear 63 17 54 12 73 73 SSW 5 7 29.82 1010 10 16.0934 0 0
2:55 am 02:55 Clear 64 18 52 11 64 64 Calm 29.81 1010 10 16.0934 0 0
3:15 am 03:15 Clear 63 17 54 12 73 73 W 3 6 29.83 1010 10 16.0934 0 0
3:35 am 03:35 Clear 64 18 54 12 68 68 WSW 6 9 29.82 1010 10 16.0934 0 0
3:55 am 03:55 Partly Cloudy 64 18 54 12 68 68 W 5 7 29.83 1010 10 16.0934 0 0
4:15 am 04:15 Cloudy 66 19 52 11 60 60 W 5 7 29.84 1011 10 16.0934 0 0
4:35 am 04:35 Cloudy with Light Rain 68 20 52 11 56 56 W 14 22 29.85 1011 10 16.0934 0 0
4:55 am 04:55 Cloudy with Rain 68 20 52 11 56 56 W 15 24 29.87 1012 10 16.0934 0 0
5:15 am 05:15 Cloudy with Rain 64 18 55 13 73 73 W 7 11 29.87 1012 10 16.0934 0 0
5:35 am 05:35 Cloudy with Light Rain 63 17 55 13 77 77 Calm 29.87 1011 10 16.0934 0.01 0.254
5:55 am 05:55 Cloudy with Light Rain 61 16 57 14 88 88 W 6 9 29.89 1012 10 16.0934 0.02 0.508
6:15 am 06:15 Cloudy with Light Rain 59 15 57 14 94 94 W 5 7 29.89 1012 10 16.0934 0.02 0.508
6:35 am 06:35 Cloudy with Light Rain 61 16 55 13 83 83 Calm 29.89 1012 10 16.0934 0.02 0.508
6:55 am 06:55 Cloudy with Light Rain 61 16 57 14 88 88 Calm 29.9 1012 10 16.0934 0.02 0.508
7:15 am 07:15 Cloudy with Light Rain 59 15 59 15 100 100 NNW 5 7 29.9 1012 10 16.0934 0 0
7:35 am 07:35 Cloudy with Light Rain 59 15 57 14 94 94 N 6 9 29.9 1012 10 16.0934 0.01 0.254
7:55 am 07:55 Cloudy with Light Rain 59 15 57 14 94 94 N 5 7 29.9 1012 10 16.0934 0.01 0.254
8:15 am 08:15 Cloudy with Light Rain 59 15 55 13 88 88 Calm 29.91 1013 10 16.0934 0.01 0.254
8:35 am 08:35 Cloudy with Light Rain 59 15 55 13 88 88 Calm 29.9 1012 10 16.0934 0.01 0.254
8:55 am 08:55 Cloudy with Light Rain 59 15 57 14 94 94 NE 3 6 29.9 1012 10 16.0934 0.02 0.508
9:15 am 09:15 Cloudy with Light Rain 59 15 57 14 94 94 NE 5 7 29.9 1012 10 16.0934 0 0
9:35 am 09:35 Cloudy 59 15 55 13 88 88 Calm 29.89 1012 10 16.0934 0 0
9:55 am 09:55 Cloudy 59 15 59 15 100 100 Calm 29.89 1012 10 16.0934 0 0
10:15 am 10:15 Cloudy 59 15 57 14 94 94 Calm 29.88 1012 10 16.0934 0 0
10:35 am 10:35 Cloudy 61 16 57 14 88 88 ESE 3 6 29.87 1011 10 16.0934 0 0
10:55 am 10:55 Mostly Cloudy 63 17 59 15 88 88 Calm 29.88 1012 10 16.0934 0 0
11:15 am 11:15 Mostly Cloudy 64 18 59 15 83 83 Calm 29.85 1011 10 16.0934 0 0
11:35 am 11:35 Cloudy 66 19 61 16 83 83 SSW 3 6 29.84 1011 10 16.0934 0 0
11:55 am 11:55 Cloudy 70 21 59 15 69 69 S 5 7 29.84 1010 10 16.0934 0 0
12:15 pm 12:15 Cloudy 70 21 59 15 69 69 S 9 15 29.83 1010 10 16.0934 0 0
12:35 pm 12:35 Cloudy 70 21 61 16 73 73 S 7 11 29.82 1010 10 16.0934 0 0
12:55 pm 12:55 Mostly Cloudy 70 21 63 17 78 78 S 10 17 29.81 1009 10 16.0934 0 0
1:15 pm 13:15 Mostly Cloudy 72 22 63 17 73 73 S 9 15 29.8 1009 10 16.0934 0 0
1:35 pm 13:35 Cloudy 70 21 63 17 78 78 S 8 13 29.79 1009 10 16.0934 0 0
1:55 pm 13:55 Cloudy 73 23 64 18 74 74 SSW 12 19 29.79 1009 10 16.0934 0 0
2:15 pm 14:15 Cloudy 72 22 64 18 78 78 SSW 10 17 29.78 1008 10 16.0934 0 0
2:35 pm 14:35 Cloudy 72 22 64 18 78 78 S 13 20 29.76 1008 10 16.0934 0 0
2:55 pm 14:55 Cloudy 72 22 64 18 78 78 S 14 22 29.75 1007 10 16.0934 0 0
3:15 pm 15:15 Cloudy 72 22 64 18 78 78 S 13 20 29.74 1007 10 16.0934 0 0
3:35 pm 15:35 Cloudy 72 22 64 18 78 78 S 10 17 29.73 1007 10 16.0934 0 0
3:55 pm 15:55 Cloudy 72 22 64 18 78 78 S 15 24 29.71 1006 10 16.0934 0 0
4:15 pm 16:15 Cloudy 73 23 66 19 78 78 S 9 15 29.71 1006 10 16.0934 0 0
4:35 pm 16:35 Cloudy 72 22 64 18 78 78 S 10 17 29.71 1006 10 16.0934 0 0
4:55 pm 16:55 Cloudy 72 22 64 18 78 78 SW 9 15 29.71 1006 10 16.0934 0 0
5:15 pm 17:15 Cloudy 72 22 64 18 78 78 S 8 13 29.71 1006 10 16.0934 0 0
5:35 pm 17:35 Cloudy 72 22 64 18 78 78 S 9 15 29.69 1005 10 16.0934 0 0
5:55 pm 17:55 Mostly Cloudy 72 22 64 18 78 78 S 9 15 29.69 1005 10 16.0934 0 0
6:15 pm 18:15 Mostly Cloudy 72 22 64 18 78 78 S 12 19 29.68 1005 10 16.0934 0 0
6:35 pm 18:35 Cloudy 72 22 66 19 83 83 S 10 17 29.67 1005 10 16.0934 0 0
6:55 pm 18:55 Cloudy with Light Rain 72 22 68 20 88 88 S 9 15 29.67 1005 10 16.0934 0 0
7:15 pm 19:15 Cloudy 72 22 66 19 83 83 S 8 13 29.68 1005 10 16.0934 0 0
7:35 pm 19:35 Cloudy 72 22 66 19 83 83 S 8 13 29.67 1005 10 16.0934 0 0
7:55 pm 19:55 Mostly Cloudy with Light Rain 70 21 66 19 88 88 S 9 15 29.66 1004 10 16.0934 0.01 0.254
8:15 pm 20:15 Partly Cloudy with Light Rain 68 20 66 19 94 94 S 10 17 29.66 1004 10 16.0934 0 0
8:35 pm 20:35 Mostly Cloudy with Light Rain 68 20 64 18 88 88 SSW 7 11 29.67 1005 10 16.0934 0 0
8:55 pm 20:55 Mostly Cloudy 66 19 64 18 94 94 SW 5 7 29.67 1005 10 16.0934 0 0
9:15 pm 21:15 Mostly Cloudy 66 19 64 18 94 94 SW 3 6 29.68 1005 10 16.0934 0 0
9:35 pm 21:35 Mostly Cloudy 64 18 64 18 100 100 SW 5 7 29.69 1006 10 16.0934 0 0
9:55 pm 21:55 Cloudy 64 18 64 18 100 100 SSW 3 6 29.69 1006 10 16.0934 0 0
10:15 pm 22:15 Cloudy with Light Rain 64 18 64 18 100 100 SSW 3 6 29.7 1006 10 16.0934 0 0
10:35 pm 22:35 Cloudy with Light Rain 64 18 63 17 94 94 S 5 7 29.7 1006 10 16.0934 0.01 0.254
10:55 pm 22:55 Partly Cloudy 64 18 63 17 94 94 S 3 6 29.7 1006 10 16.0934 0.01 0.254
11:15 pm 23:15 Partly Cloudy 63 17 63 17 100 100 SW 3 6 29.71 1006 10 16.0934 0 0
11:35 pm 23:35 Mostly Cloudy with Drizzle 63 17 63 17 100 100 SSW 3 6 29.71 1006 10 16.0934 0.01 0.254
11:55 pm 23:55 Partly Cloudy 63 17 63 17 100 100 Calm 29.7 1006 10 16.0934 0.01 0.254

Powered by AerisWeather